This demonstration page uses our WeatherBlox Daily Observations layout. Learn more.

Left ArrowRight Arrow

39.08367, -84.50855

Hourly Observations for September 7, 2015

Temp ( °F °C ) Dew Point ( °F °C ) Humidity (%) Winds ( mph kmh ) Pressure ( in mb ) Visibility ( mi km ) Precip ( " mm )
12:53 am 00:53 Clear with Mist and Fog 69 20.6 69 20.6 100 100 Calm 30.06 1018 5 8 0.00 0.00
1:53 am 01:53 Clear with Mist and Fog 68 20 68 20 100 100 Calm 30.06 1018 2 3 0.00 0.00
2:00 am 02:00 Clear with Mist and Fog 68 20 68 20 100 100 Calm 30.06 1018 1 2 0.00 0.00
2:06 am 02:06 Clear with Mist and Fog 70 21 68 20 94 94 Calm 30.06 1018 3 5 0.00 0.00
2:15 am 02:15 Clear with Mist and Fog 68 20 68 20 100 100 Calm 30.03 1017 3 4 0.00 0.00
2:24 am 02:24 Clear with Mist and Fog 68 20 68 20 100 100 Calm 30.06 1018 4 6 0.00 0.00
2:53 am 02:53 Clear with Mist and Fog 69 20.6 69 20.6 100 100 Calm 30.06 1018 3 5 0.00 0.00
3:03 am 03:03 Clear with Mist and Fog 66 19 66 19 100 100 Calm 30.06 1018 2 3 0.00 0.00
3:20 am 03:20 Clear with Mist and Fog 68 20 68 20 100 100 Calm 30.03 1017 3 4 0.00 0.00
3:53 am 03:53 Clear with Mist and Fog 67 19.4 67 19.4 100 100 Calm 30.06 1018 2 2 0.00 0.00
4:07 am 04:07 Mostly Cloudy with Mist and Fog 66 18.9 66 18.9 100 100 Calm 30.06 1018 1 1 0.00 0.00
4:21 am 04:21 Mostly Clear with Mist and Fog 67 19.4 67 19.4 100 100 Calm 30.06 1018 3 4 0.00 0.00
4:53 am 04:53 Clear with Mist and Fog 67 19.4 67 19.4 100 100 Calm 30.07 1018 2 3 0.00 0.00
5:19 am 05:19 Clear with Mist and Fog 67 19.4 67 19.4 100 100 Calm 30.06 1018 3 5 0.00 0.00
5:41 am 05:41 Clear with Mist and Fog 67 19.4 67 19.4 100 100 Calm 30.06 1018 2 3 0.00 0.00
5:53 am 05:53 Clear with Mist and Fog 66 18.9 66 18.9 100 100 Calm 30.07 1018 2 3 0.00 0.00
6:16 am 06:16 Mostly Clear with Mist and Fog 66 19 66 19 100 100 Calm 30.06 1018 2 2 0.00 0.00
6:20 am 06:20 Mostly Clear with Mist and Fog 66 19 66 19 100 100 Calm 30.06 1018 3 5 0.00 0.00
6:28 am 06:28 Mostly Cloudy with Mist and Fog 66 19 66 19 100 100 Calm 30.06 1018 1 2 0.00 0.00
6:34 am 06:34 Mostly Cloudy with Fog 64 18 64 18 100 100 Calm 30.06 1018 0 0 0.00 0.00
6:48 am 06:48 Mostly Cloudy with Mist and Fog 66 19 66 19 100 100 Calm 30.06 1018 1 2 0.00 0.00
6:49 am 06:49 Mostly Cloudy with Mist and Fog 66 19 66 19 100 100 Calm 30.06 1018 1 2 0.00 0.00
6:56 am 06:56 Partly Cloudy with Patchy Fog 64 18 64 18 100 100 Calm 30.06 1018 4 6 0.00 0.00
7:53 am 07:53 Partly Cloudy with Patchy Fog 67 19.4 67 19.4 100 100 Calm 30.10 1019 4 6 0.00 0.00
8:53 am 08:53 Sunny with Mist and Fog 70 21.1 70 21.1 100 100 Calm 30.12 1020 4 6 0.00 0.00
9:53 am 09:53 Sunny 75 23.9 71 21.7 88 88 S 5 7 30.12 1020 8 13 0.00 0.00
10:53 am 10:53 Sunny 80 26.7 71 21.7 74 74 Calm 30.11 1020 10 16 0.00 0.00
11:53 am 11:53 Sunny 83 28.3 72 22.2 70 70 S 6 9 30.10 1019 10 16 0.00 0.00
12:53 pm 12:53 Sunny 86 30 72 22.2 63 63 Calm 30.08 1019 10 16 0.00 0.00
1:53 pm 13:53 Partly Cloudy 87 30.6 71 21.7 59 59 SSE 6 9 30.06 1018 10 16 0.00 0.00
2:53 pm 14:53 Partly Cloudy 88 31.1 70 21.1 55 55 S 3 6 30.04 1017 10 16 0.00 0.00
3:53 pm 15:53 Partly Cloudy 85 29.4 72 22.2 65 65 Calm 30.02 1017 10 16 0.00 0.00
4:53 pm 16:53 Partly Cloudy 89 31.7 67 19.4 48 48 Calm 30.00 1016 10 16 0.00 0.00
5:53 pm 17:53 Mostly Sunny 87 30.6 69 20.6 55 55 SSE 6 9 29.99 1016 10 16 0.00 0.00
6:53 pm 18:53 Mostly Sunny 81 27.2 75 23.9 82 82 SSE 3 6 29.99 1016 9 14 0.00 0.00
7:53 pm 19:53 Mostly Sunny 77 25 72 22.2 85 85 Calm 29.99 1016 10 16 0.00 0.00
8:53 pm 20:53 Clear 73 22.8 72 22.2 96 96 Calm 30.01 1016 8 13 0.00 0.00
9:53 pm 21:53 Clear 72 22.2 70 21.1 94 94 Calm 30.03 1017 8 13 0.00 0.00
10:53 pm 22:53 Clear 72 22.2 70 21.1 94 94 Calm 30.03 1017 7 11 0.00 0.00
11:53 pm 23:53 Clear with Mist and Fog 70 21.1 70 21.1 100 100 Calm 30.04 1017 5 8 0.00 0.00

Powered by AerisWeather